Wind_Speed
8 7 6 5 5 6 5 4 3 3 4 6 7 7 9 9 10 7 8 7 10 14 18 8 9 13 13 18 11 13 7 9 12 7 6 10 12 9 2 5 5 6 4 9 12
9 8 7 6 5 5 5 4 3 3 3 4 6 8 10 9 8 6 6 6 12 11 14 21 19 15 17 12 8 4 2 5 11 9 5 7 10 9 7 7 10 8 3 7 11
10 9 9 8 7 7 6 5 4 3 3 3 5 8 9 10 9 9 7 4 6 9 15 15 19 13 10 5 6 8 3 8 8 9 9 7 11 6 6 5 8 9 6 2 10
11 11 11 10 9 8 7 6 5 3 2 2 4 9 8 10 4 8 7 8 11 16 16 17 16 15 18 10 13 6 4 6 8 12 14 14 10 7 4 4 7 7 10 2 5
9 12 13 13 13 11 10 9 7 5 2 1 4 10 9 6 7 9 9 7 15 6 11 13 16 16 16 13 12 12 8 7 7 11 7 16 13 8 5 4 8 8 12 5 4
6 9 12 14 15 14 12 11 10 8 6 4 4 10 7 4 8 9 10 8 10 5 6 11 13 13 13 8 10 13 10 6 12 3 5 18 18 14 8 7 9 10 13 6 3
1 4 8 12 15 16 15 13 12 10 8 6 4 6 7 6 8 12 12 10 5 4 5 5 8 7 7 3 9 3 4 3 12 6 9 16 20 17 13 11 10 10 11 7 5
2 1 4 7 11 16 17 17 15 13 11 9 7 5 4 5 8 11 12 10 5 2 3 2 7 5 7 9 8 2 4 6 9 10 12 19 19 15 13 11 9 9 10 6 9
1 2 1 4 8 11 15 17 17 16 15 13 10 8 6 6 7 11 13 11 7 6 8 5 3 3 7 12 11 4 1 6 13 10 14 19 15 18 15 12 13 11 12 9 8
3 3 2 1 5 8 11 14 18 19 19 18 16 11 8 7 10 9 10 11 9 11 9 10 5 4 2 13 9 12 9 9 9 19 13 19 19 18 19 16 15 14 14 10 8
4 3 3 3 2 6 8 11 13 17 22 21 16 20 13 16 15 15 14 12 13 14 15 11 11 7 6 11 21 18 18 23 18 15 16 17 25 24 24 23 18 21 18 17 12
4 4 3 2 2 5 8 11 12 13 18 23 24 20 19 17 19 16 16 15 16 16 17 17 15 2 9 17 20 11 14 18 20 13 22 15 18 21 26 25 25 23 22 18 17
5 5 4 3 2 6 12 15 12 13 14 13 21 21 24 19 20 20 19 16 14 14 12 16 13 8 15 18 21 14 20 13 11 13 20 23 18 18 23 24 24 26 27 27 23
7 6 5 5 5 8 14 14 11 10 12 2 8 15 34 28 25 20 20 16 16 14 11 15 22 16 14 15 13 18 12 16 20 16 13 19 7 19 16 22 25 30 34 30 31
11 9 7 8 7 9 10 12 13 9 5 1 5 7 23 34 10 24 19 16 17 11 10 18 20 18 21 15 15 19 19 16 14 10 10 14 8 14 13 15 19 27 32 34 30
14 12 9 9 11 10 11 9 9 5 7 3 7 7 20 34 15 15 21 16 19 19 19 22 19 20 18 17 20 22 19 17 13 7 6 10 18 9 13 17 15 15 22 35 34
15 13 12 11 14 14 13 10 5 7 1 1 2 7 16 21 23 19 23 25 26 19 26 16 17 17 17 24 17 10 18 6 8 3 6 9 9 20 22 23 20 19 11 22 34
14 13 13 15 16 16 17 14 11 6 7 3 8 6 16 22 20 24 19 25 27 25 24 22 18 11 14 20 14 16 18 14 6 4 7 13 9 19 23 27 17 23 21 19 27
15 12 12 19 17 18 22 21 10 9 4 4 5 13 15 18 12 19 23 28 30 31 28 11 14 5 9 8 10 16 20 19 14 4 3 8 17 22 23 25 21 21 16 13 27
13 12 14 18 18 20 25 29 20 10 9 6 4 3 1 3 19 21 20 15 23 32 27 24 31 15 12 12 12 12 16 8 8 4 5 8 12 20 19 21 19 22 18 17 21
11 11 13 16 19 22 30 33 28 23 14 9 9 14 10 10 9 15 25 20 26 25 24 31 32 24 19 16 10 13 12 7 8 9 8 3 10 16 20 16 21 19 13 10 21
9 11 12 16 20 24 28 29 29 28 21 25 26 20 16 13 14 11 6 8 10 12 25 30 28 32 34 23 25 23 10 7 6 6 9 5 12 21 17 13 18 15 11 14 10
9 13 15 15 11 11 12 15 18 20 20 20 13 10 15 15 11 8 9 6 10 14 7 20 35 32 34 32 26 22 13 11 14 13 15 5 6 7 15 18 13 6 6 11 17
9 13 18 16 13 10 10 15 17 17 18 18 16 10 13 18 13 11 16 12 10 9 7 7 18 22 27 25 7 6 12 18 18 15 11 16 11 13 13 19 16 14 16 14 14
10 16 18 13 14 12 13 13 16 15 19 18 18 12 10 15 19 17 18 18 17 14 9 4 1 10 10 5 7 11 15 15 15 10 2 5 9 9 15 21 21 22 15 9 19
8 15 18 16 12 14 11 7 6 11 13 17 14 14 13 14 17 17 17 21 22 19 13 9 6 10 10 7 10 12 13 15 9 6 6 2 0 2 8 17 23 30 23 21 24
8 13 20 20 19 17 13 14 8 10 3 7 5 6 10 9 13 14 16 14 15 15 19 18 10 12 14 14 14 13 12 7 8 9 9 5 3 4 8 14 22 24 23 20 22
Wind_Direction
190 182 179 173 168 162 159 147 114 83 73 78 86 91 90 87 89 87 92 91 98 77 72 94 111 124 107 136 135 155 150 153 159 176 181 189 187 191 222 330 325 32 122 164 154
201 197 193 188 188 181 170 157 135 110 84 82 100 112 106 104 98 90 90 86 95 106 62 75 123 117 106 91 107 111 253 190 178 160 189 212 211 309 292 332 23 31 88 163 156
210 210 207 199 200 198 193 179 166 137 103 90 121 133 125 121 96 101 98 115 106 86 79 84 112 107 110 86 23 358 124 120 172 175 187 193 205 282 331 359 28 14 4 161 155
209 212 213 212 209 209 206 198 188 176 138 97 136 143 126 134 97 119 120 126 132 78 65 68 75 71 43 21 7 352 56 114 150 183 190 198 264 282 298 331 351 359 351 342 152
213 212 212 213 214 214 212 206 200 195 185 140 162 162 140 123 136 145 138 134 154 42 54 68 62 56 38 45 31 12 10 262 200 198 229 220 255 285 321 293 304 344 339 322 167
213 217 216 211 213 217 218 214 211 206 202 195 170 182 180 128 151 164 147 146 195 277 55 54 54 41 49 70 5 350 13 210 195 187 259 213 236 257 288 261 297 325 336 310 247
223 219 217 217 214 213 216 221 222 220 218 221 205 192 196 184 162 170 171 170 168 140 102 30 19 36 54 49 3 350 347 201 201 220 213 210 228 248 274 276 294 306 330 296 252
4 289 234 222 218 217 215 216 220 225 228 224 226 226 214 192 178 176 182 175 173 206 175 313 322 349 353 358 10 311 318 141 181 201 212 207 226 246 248 264 292 287 335 298 235
339 348 300 233 223 219 219 217 218 223 229 232 231 236 219 159 171 185 177 177 180 159 158 207 259 277 307 343 355 25 6 229 197 193 218 202 248 258 256 255 273 267 304 333 269
317 319 331 295 227 216 216 219 222 220 226 229 225 227 196 185 188 183 194 202 203 210 202 198 235 264 21 316 306 332 321 294 266 234 222 252 252 269 262 267 270 255 262 276 304
300 301 310 329 246 213 210 213 221 227 227 227 230 210 187 190 189 191 195 214 219 226 229 226 253 233 336 320 321 296 273 275 281 265 243 258 249 269 266 267 250 257 250 255 282
285 272 277 294 309 202 202 206 206 230 233 232 230 219 194 181 195 190 200 205 214 221 228 230 239 266 310 328 318 287 293 301 294 262 248 260 251 254 255 268 269 270 255 262 264
275 270 257 246 251 196 197 212 220 247 275 233 240 226 199 212 213 192 205 210 222 229 222 227 217 238 295 316 338 303 306 317 262 273 242 247 254 248 261 261 255 246 255 261 264
266 260 244 231 229 213 214 225 239 272 304 277 243 238 202 207 223 200 201 205 228 233 231 239 231 266 285 300 327 314 311 286 276 260 242 237 255 281 267 265 252 254 247 243 248
260 254 242 228 217 218 220 226 249 283 321 290 146 186 198 203 207 212 200 204 221 222 253 246 252 272 280 271 314 304 332 293 263 253 250 228 229 282 271 272 271 255 248 236 255
258 251 239 230 218 212 215 231 238 257 254 188 177 184 193 203 205 197 198 214 240 254 257 263 264 280 276 268 286 307 315 297 273 211 218 261 213 268 268 312 296 282 244 241 241
261 248 238 229 220 208 207 209 220 230 207 222 24 244 205 210 195 187 197 213 226 239 251 267 271 273 274 267 272 293 320 309 302 296 235 195 209 277 296 278 284 261 257 224 235
269 254 235 227 224 212 206 203 222 254 210 360 303 264 239 216 228 220 217 217 221 231 250 260 287 261 238 248 279 297 295 264 220 210 253 217 243 284 294 292 277 261 254 242 216
260 257 237 227 223 213 210 209 224 233 221 281 2 248 237 228 229 224 228 229 228 229 228 261 248 190 241 272 286 290 297 310 236 237 243 249 272 277 285 286 285 251 251 242 231
251 249 230 230 220 212 215 225 226 208 207 275 350 81 328 349 253 246 234 249 246 240 239 250 255 267 260 280 279 270 298 296 257 150 229 249 263 272 283 296 276 246 241 239 243
252 238 229 221 215 215 220 226 239 227 242 274 274 293 305 325 300 289 240 259 293 261 243 238 247 264 271 283 297 292 291 328 313 259 190 223 263 284 295 292 273 256 224 243 233
248 219 209 203 210 220 229 238 250 259 253 274 275 275 277 302 316 269 243 262 302 306 260 251 237 250 264 270 279 283 299 331 2 302 245 250 277 293 290 264 253 260 225 222 270
233 205 191 191 199 229 247 255 265 263 255 255 237 226 248 282 301 241 270 260 283 296 269 251 237 236 256 270 271 257 269 285 324 339 292 212 255 279 266 230 241 198 179 185 212
209 199 199 202 213 223 260 274 280 267 257 237 256 285 287 257 250 268 273 276 280 319 343 331 229 231 233 244 230 248 282 312 306 323 302 248 270 272 255 243 185 170 200 207 234
206 200 204 216 223 240 264 278 302 281 244 239 251 260 294 277 254 268 280 271 278 282 294 277 360 234 239 245 280 288 303 298 301 310 229 278 256 270 250 223 194 187 193 224 230
219 203 215 216 224 228 244 260 316 305 293 236 270 254 273 276 261 263 273 278 274 279 288 309 302 284 287 289 292 293 291 299 300 194 192 205 7 258 230 236 216 210 222 268 237
246 217 217 218 227 241 258 264 275 332 54 249 253 243 261 277 253 253 261 262 270 285 286 278 304 306 292 295 302 291 277 292 177 162 168 217 227 290 290 258 237 223 246 256 256
Height
3180 3181 3181 3182 3183 3184 3184 3185 3185 3185 3185 3184 3184 3184 3185 3184 3185 3185 3184 3184 3184 3184 3181 3179 3180 3180 3182 3183 3184 3184 3186 3185 3186 3187 3187 3187 3188 3189 3189 3189 3188 3188 3187 3188 3186
3180 3181 3182 3182 3182 3183 3184 3185 3186 3186 3185 3185 3185 3186 3187 3186 3187 3186 3187 3184 3186 3185 3184 3182 3182 3185 3186 3187 3187 3188 3188 3187 3188 3188 3189 3188 3189 3190 3191 3190 3189 3189 3189 3189 3189
3179 3180 3181 3183 3183 3183 3184 3185 3186 3186 3186 3186 3186 3187 3188 3188 3188 3188 3187 3187 3187 3187 3189 3188 3188 3189 3189 3190 3190 3188 3188 3187 3188 3189 3189 3190 3191 3192 3191 3191 3191 3190 3191 3191 3191
3178 3179 3180 3181 3182 3183 3184 3185 3186 3186 3187 3186 3187 3188 3188 3190 3192 3189 3188 3188 3189 3190 3191 3191 3191 3191 3190 3190 3189 3189 3189 3190 3190 3192 3192 3192 3192 3191 3191 3192 3191 3191 3191 3192 3193
3176 3178 3179 3180 3181 3182 3183 3184 3185 3186 3186 3186 3187 3188 3189 3191 3192 3191 3191 3190 3190 3191 3193 3192 3192 3191 3191 3191 3190 3190 3190 3189 3190 3190 3191 3192 3191 3192 3191 3192 3192 3191 3191 3192 3194
3175 3176 3177 3178 3180 3181 3182 3183 3184 3185 3186 3187 3187 3188 3189 3191 3191 3192 3192 3192 3193 3192 3193 3194 3193 3193 3193 3191 3190 3190 3189 3188 3189 3190 3193 3192 3192 3192 3192 3193 3194 3192 3192 3192 3193
3174 3175 3175 3175 3177 3179 3180 3181 3183 3184 3185 3185 3186 3188 3189 3190 3190 3191 3192 3193 3193 3194 3195 3194 3193 3195 3196 3193 3191 3191 3192 3189 3192 3193 3194 3193 3193 3192 3194 3194 3195 3194 3193 3192 3193
3174 3173 3173 3174 3174 3176 3178 3180 3181 3182 3183 3184 3185 3186 3187 3188 3189 3191 3192 3194 3194 3194 3196 3195 3194 3195 3194 3193 3191 3190 3192 3192 3191 3192 3192 3193 3193 3193 3193 3193 3194 3193 3193 3193 3193
3173 3173 3173 3172 3172 3173 3174 3177 3179 3180 3181 3182 3183 3184 3186 3187 3188 3189 3192 3193 3193 3194 3194 3194 3193 3193 3194 3192 3191 3191 3192 3191 3191 3191 3191 3192 3191 3190 3191 3192 3192 3193 3193 3193 3194
3171 3171 3172 3171 3171 3171 3172 3173 3175 3177 3178 3179 3181 3185 3185 3186 3186 3188 3189 3191 3192 3192 3194 3194 3192 3191 3191 3193 3193 3192 3191 3191 3191 3192 3191 3190 3189 3188 3188 3188 3188 3190 3191 3192 3192
3170 3170 3170 3170 3169 3170 3171 3172 3175 3176 3175 3177 3178 3180 3180 3182 3184 3187 3188 3189 3190 3190 3192 3192 3192 3191 3192 3193 3192 3191 3190 3188 3190 3191 3191 3188 3188 3186 3185 3185 3186 3184 3186 3189 3191
3169 3169 3169 3169 3168 3168 3169 3169 3170 3171 3171 3172 3174 3175 3179 3180 3181 3184 3186 3187 3188 3190 3191 3191 3188 3190 3190 3191 3189 3188 3188 3185 3185 3185 3187 3186 3185 3185 3184 3184 3184 3185 3186 3187 3189
3167 3167 3167 3168 3168 3168 3166 3167 3169 3169 3169 3168 3167 3170 3177 3179 3179 3181 3183 3185 3186 3188 3189 3188 3188 3189 3189 3188 3187 3187 3186 3185 3184 3182 3182 3183 3182 3181 3180 3180 3180 3182 3183 3185 3186
3165 3165 3166 3166 3168 3166 3166 3167 3168 3169 3168 3165 3163 3165 3168 3174 3175 3179 3181 3184 3184 3185 3188 3187 3186 3187 3187 3186 3187 3185 3184 3184 3182 3182 3180 3180 3179 3177 3178 3178 3177 3176 3175 3178 3183
3162 3163 3163 3164 3165 3165 3167 3167 3168 3170 3168 3164 3162 3162 3165 3169 3173 3174 3178 3180 3181 3183 3185 3185 3185 3185 3183 3184 3185 3181 3180 3180 3179 3178 3178 3176 3179 3174 3172 3172 3172 3171 3171 3173 3176
3159 3160 3161 3162 3163 3165 3165 3167 3170 3172 3164 3163 3162 3162 3163 3166 3170 3171 3175 3178 3181 3181 3180 3179 3181 3181 3180 3179 3180 3181 3180 3179 3177 3177 3177 3172 3175 3171 3170 3166 3166 3166 3167 3168 3170
3155 3156 3158 3159 3161 3162 3164 3167 3170 3166 3163 3163 3164 3163 3163 3164 3169 3170 3171 3174 3176 3178 3176 3175 3174 3175 3177 3176 3177 3178 3177 3176 3177 3175 3173 3170 3172 3166 3166 3162 3162 3161 3160 3160 3166
3151 3153 3154 3155 3157 3160 3162 3166 3165 3160 3162 3162 3161 3161 3162 3165 3167 3169 3170 3170 3171 3173 3174 3174 3170 3170 3172 3174 3175 3174 3175 3174 3177 3176 3169 3169 3166 3162 3161 3157 3157 3156 3156 3158 3158
3147 3148 3150 3151 3154 3157 3160 3160 3157 3159 3160 3160 3159 3158 3159 3163 3166 3166 3166 3165 3166 3168 3170 3169 3166 3166 3169 3171 3173 3171 3168 3166 3164 3166 3167 3164 3161 3159 3156 3154 3153 3152 3151 3151 3155
3142 3144 3145 3147 3150 3153 3155 3154 3155 3158 3158 3159 3159 3158 3159 3161 3163 3163 3163 3160 3163 3164 3167 3167 3165 3162 3163 3166 3167 3167 3167 3164 3162 3165 3166 3158 3156 3153 3152 3151 3149 3147 3148 3149 3149
3139 3139 3141 3143 3146 3148 3148 3149 3150 3156 3156 3158 3157 3158 3159 3159 3158 3157 3156 3159 3157 3157 3161 3161 3164 3157 3160 3161 3162 3163 3162 3161 3160 3158 3157 3159 3152 3150 3149 3148 3146 3145 3147 3147 3147
3135 3136 3137 3139 3142 3142 3144 3147 3151 3153 3156 3154 3154 3155 3155 3157 3154 3155 3154 3154 3153 3153 3151 3155 3156 3156 3155 3157 3158 3158 3157 3156 3156 3155 3152 3152 3149 3147 3145 3145 3146 3146 3147 3148 3146
3132 3133 3134 3136 3139 3141 3143 3144 3144 3145 3148 3149 3150 3151 3152 3152 3153 3150 3150 3150 3150 3149 3146 3146 3147 3151 3152 3154 3153 3152 3153 3152 3152 3150 3148 3148 3145 3143 3141 3141 3144 3147 3148 3147 3148
3130 3131 3133 3134 3137 3138 3139 3139 3140 3141 3141 3143 3144 3146 3147 3146 3147 3146 3146 3147 3147 3146 3143 3141 3140 3143 3144 3147 3147 3147 3148 3148 3147 3146 3145 3143 3143 3142 3138 3139 3144 3147 3149 3149 3150
3127 3128 3130 3132 3134 3134 3135 3136 3136 3135 3135 3137 3137 3139 3140 3139 3139 3139 3140 3141 3143 3143 3142 3140 3139 3141 3142 3142 3142 3142 3143 3143 3141 3141 3142 3141 3139 3139 3137 3138 3143 3145 3146 3147 3146
3125 3127 3128 3130 3131 3131 3132 3133 3133 3132 3132 3133 3133 3133 3133 3133 3132 3133 3134 3136 3136 3137 3137 3137 3137 3136 3138 3139 3138 3137 3138 3138 3137 3135 3137 3137 3137 3137 3136 3139 3141 3142 3142 3143 3142
3123 3124 3126 3127 3128 3129 3130 3131 3131 3130 3130 3129 3128 3128 3129 3128 3127 3128 3129 3131 3131 3131 3132 3134 3134 3134 3132 3133 3133 3134 3134 3135 3134 3133 3133 3133 3135 3134 3134 3137 3137 3140 3141 3138 3135